Tracking 19651 objects as of 23-Apr-2019
HD Live streaming from Space Station
objects crossing your sky now

COSMOS 343

Track COSMOS 343 now!
10-day predictions
COSMOS 343 is classified as:


NORAD ID: 4390
Int'l Code: 1970-036H
Perigee: 1,382.0 km
Apogee: 1,474.8 km
Inclination: 74.0 °
Period: 114.2 minutes
Semi major axis: 7799 km
RCS: 0.751 m2 (medium)
Launch date: April 25, 1970
Source: Commonwealth of Independent States (former USSR) (CIS)
Launch site: PLESETSK MISSILE AND SPACE COMPLEX (PKMTR)
aabbcc
Your satellite tracking list
Your tracking list is empty




NASA's NSSDC Master Catalog

Two Line Element Set (TLE):
1  4390U 70036H   19113.13187251 -.00000010  00000-0  32411-4 0  9992
2  4390  74.0305 359.7418 0059458  41.7546  69.9409 12.60408856254336
Source of the keplerian elements: AFSPC